Home   Weather   Salisbury   Past weeks
Flag for United Kingdom

Past Weather in Salisbury, England, United Kingdom — Yesterday and Last 2 Weeks

Now
59 °F

Fog.


Feels Like: 58 °F
Forecast: 66 / 53 °F
Wind: 8 mph from South

Location: Boscombe Down

Current Time: Jul 18, 2019 at 6:01:55 am

Latest Report: Jul 18, 2019 at 4:50 am


Visibility: 6 mi

Pressure: 29.80 "Hg

Humidity: 100%

Dew Point: 59 °F

Location of SalisburyLocation

Past Weather in Salisbury — Graph

°F

Salisbury Temperature Yesterday

Maximum temperature yesterday: 73 °F (at 2:20 pm)
Minimum temperature yesterday: 54 °F (at 3:50 am)
Average temperature yesterday: 65 °F

High & Low Weather Summary for the Past Weeks

 TemperatureHumidityPressure
High77 °F (Jul 4, 4:20 pm)100% (Jul 8, 1:50 am)30.33 "Hg (Jul 8, 1:50 am)
Low50 °F (Jul 4, 4:50 am)33% (Jul 7, 4:20 pm)29.80 "Hg (Jul 18, 4:50 am)
Average65 °F67%30.10 "Hg
* Reported Jul 3 4:50 am — Jul 18 4:50 am, Salisbury. Weather by CustomWeather, © 2019

Note: Actual official high and low records may vary slightly from our data, if they occured in-between our weather recording intervals... More about our weather records

Advertising

Salisbury Weather History for the Previous 24 Hours

Scroll right to see more
 ConditionsComfort  
Time TempWeatherWind HumidityBarometerVisibility
4:50 am
Thu, Jul 18
59 °FFog.8 mph100%29.80 "Hg6 mi
3:50 am59 °FPartly cloudy.6 mph94%29.83 "HgN/A
2:50 am59 °FPartly cloudy.6 mph94%29.83 "HgN/A
1:50 am57 °FPassing clouds.5 mph94%29.86 "Hg4 mi
12:50 am57 °FPassing clouds.2 mph94%29.86 "HgN/A
11:50 pm
Wed, Jul 17
61 °FPassing clouds.2 mph83%29.89 "HgN/A
10:50 pm63 °FPassing clouds.6 mph77%29.89 "HgN/A
9:50 pm64 °FPartly cloudy.8 mph78%29.89 "HgN/A
8:50 pm64 °FBroken clouds.8 mph78%29.89 "HgN/A
7:50 pm66 °FScattered clouds.9 mph68%29.89 "HgN/A
6:50 pm70 °FPartly sunny.10 mph53%29.89 "HgN/A
5:50 pm72 °FSunny.9 mph44%29.89 "Hg10 mi
5:20 pm72 °FSunny.12 mph44%29.92 "Hg10 mi
4:50 pm72 °FSunny.9 mph41%29.92 "Hg10 mi
4:20 pm72 °FBroken clouds.12 mph44%29.92 "HgN/A
3:50 pm72 °FOvercast.12 mph47%29.92 "HgN/A
3:20 pm73 °FOvercast.10 mph47%29.92 "HgN/A
2:50 pm72 °FOvercast.13 mph53%29.95 "HgN/A
2:20 pm73 °FOvercast.10 mph53%29.95 "HgN/A
1:50 pm72 °FOvercast.8 mph57%29.95 "HgN/A
1:20 pm72 °FOvercast.10 mph57%29.95 "HgN/A
12:50 pm72 °FOvercast.9 mph53%29.95 "HgN/A
12:20 pm70 °FPartly sunny.10 mph64%29.98 "HgN/A
11:50 am70 °FPartly sunny.9 mph60%29.98 "HgN/A
11:21 am70 °FPartly sunny.9 mph64%29.98 "HgN/A
10:50 am68 °FPartly sunny.7 mph69%29.98 "HgN/A
10:20 am68 °FPartly sunny.6 mph69%29.98 "HgN/A
9:50 am66 °FSunny.5 mph73%29.98 "Hg10 mi
9:20 am64 °FSunny.5 mph78%29.98 "Hg10 mi
8:50 am63 °FSunny.5 mph77%30.01 "Hg10 mi
8:21 am61 °FSunny.2 mph83%30.01 "Hg10 mi
7:50 am59 °FSunny.3 mph88%30.01 "Hg10 mi
6:50 am55 °FSunny.2 mph88%29.98 "Hg10 mi
Weather by CustomWeather, © 2019

See weather overview